Location: *
(40.7873°S, 98.7174°E)
Time: 11:31:31
(UTC+00:00)

Kosmos-1816 - Pass Details

Date: 18 June 2024
Orbit: 959 x 1007 km, 82.9° (Epoch: 23 July)

Event Time Altitude Azimuth Distance (km) Brightness Sun altitude
Rises 10:50:10 0° 169° (SSE) 3,769 8.7 -8.6°
Reaches altitude 10° 10:54:57 10° 137° (SE) 2,801 7.8 -9.5°
Enters shadow 10:56:45 12° 121° (ESE) 2,673 7.6 -9.8°
